Time,TemperatureF,DewpointF,PressureIn,WindDirection,WindDirectionDegrees,WindSpeedMPH,WindSpeedGustMPH,Humidity,HourlyPrecipIn,Conditions,Clouds,dailyrainin,SolarRadiationWatts/m^2,SoftwareType,DateUTC
2013-02-23 00:03:00,26.4,24.0,29.84,West,266,0.0,0.0,92,0.00,,,0.00,0,weatherlink.com 1.10,2013-02-23 05:03:00,
2013-02-23 00:18:00,26.3,24.0,29.84,West,266,0.0,0.0,92,0.00,,,0.00,0,weatherlink.com 1.10,2013-02-23 05:18:00,
2013-02-23 00:33:00,26.3,25.0,29.84,West,266,1.0,1.0,93,0.00,,,0.00,0,weatherlink.com 1.10,2013-02-23 05:33:00,
2013-02-23 00:49:00,26.2,25.0,29.83,West,266,0.0,0.0,93,0.00,,,0.00,0,weatherlink.com 1.10,2013-02-23 05:49:00,
2013-02-23 01:04:00,26.2,25.0,29.83,West,266,0.0,0.0,93,0.00,,,0.00,0,weatherlink.com 1.10,2013-02-23 06:04:00,
2013-02-23 01:19:00,26.3,25.0,29.82,West,266,0.0,1.0,93,0.00,,,0.00,0,weatherlink.com 1.10,2013-02-23 06:19:00,
2013-02-23 01:34:00,26.3,25.0,29.82,West,266,0.0,1.0,93,0.00,,,0.00,0,weatherlink.com 1.10,2013-02-23 06:34:00,
2013-02-23 01:49:00,26.3,25.0,29.82,West,266,0.0,0.0,93,0.00,,,0.00,0,weatherlink.com 1.10,2013-02-23 06:49:00,
2013-02-23 02:04:00,26.3,25.0,29.82,West,266,0.0,0.0,93,0.00,,,0.00,0,weatherlink.com 1.10,2013-02-23 07:04:00,
2013-02-23 02:19:00,26.2,25.0,29.82,West,266,0.0,0.0,94,0.00,,,0.00,0,weatherlink.com 1.10,2013-02-23 07:19:00,
2013-02-23 02:34:00,26.2,25.0,29.82,West,266,0.0,0.0,94,0.00,,,0.00,0,weatherlink.com 1.10,2013-02-23 07:34:00,
2013-02-23 02:49:00,26.3,25.0,29.81,West,266,0.0,0.0,94,0.00,,,0.00,0,weatherlink.com 1.10,2013-02-23 07:49:00,
2013-02-23 03:04:00,26.4,25.0,29.81,West,266,0.0,1.0,93,0.00,,,0.00,0,weatherlink.com 1.10,2013-02-23 08:04:00,
2013-02-23 03:19:00,26.4,25.0,29.81,West,266,0.0,0.0,94,0.00,,,0.00,0,weatherlink.com 1.10,2013-02-23 08:19:00,
2013-02-23 03:34:00,26.4,25.0,29.80,West,266,0.0,0.0,94,0.00,,,0.00,0,weatherlink.com 1.10,2013-02-23 08:34:00,
2013-02-23 03:49:00,26.3,25.0,29.80,West,266,0.0,2.0,94,0.00,,,0.00,0,weatherlink.com 1.10,2013-02-23 08:49:00,
2013-02-23 04:04:00,26.2,25.0,29.79,West,266,0.0,2.0,94,0.00,,,0.00,0,weatherlink.com 1.10,2013-02-23 09:04:00,
2013-02-23 04:19:00,26.2,25.0,29.79,West,266,0.0,2.0,94,0.00,,,0.00,0,weatherlink.com 1.10,2013-02-23 09:19:00,
2013-02-23 04:34:00,26.3,25.0,29.79,West,266,0.0,1.0,94,0.00,,,0.00,0,weatherlink.com 1.10,2013-02-23 09:34:00,
2013-02-23 04:49:00,26.5,25.0,29.79,West,266,0.0,0.0,94,0.00,,,0.00,0,weatherlink.com 1.10,2013-02-23 09:49:00,
2013-02-23 05:04:00,26.7,25.0,29.79,WSW,258,0.0,0.0,94,0.00,,,0.00,0,weatherlink.com 1.10,2013-02-23 10:04:00,
2013-02-23 05:19:00,27.0,26.0,29.79,WSW,258,0.0,0.0,95,0.00,,,0.00,0,weatherlink.com 1.10,2013-02-23 10:19:00,
2013-02-23 05:34:00,27.6,26.0,29.79,WSW,258,0.0,0.0,95,0.00,,,0.00,0,weatherlink.com 1.10,2013-02-23 10:34:00,
2013-02-23 05:49:00,27.1,26.0,29.79,WSW,258,0.0,0.0,94,0.00,,,0.00,0,weatherlink.com 1.10,2013-02-23 10:49:00,
2013-02-23 06:04:00,28.4,27.0,29.79,WSW,258,2.0,4.0,95,0.00,,,0.00,0,weatherlink.com 1.10,2013-02-23 11:04:00,
2013-02-23 06:19:00,28.7,28.0,29.79,West,261,2.0,4.0,95,0.00,,,0.00,0,weatherlink.com 1.10,2013-02-23 11:19:00,
2013-02-23 06:34:00,28.9,28.0,29.80,WSW,258,2.0,4.0,95,0.00,,,0.00,0,weatherlink.com 1.10,2013-02-23 11:34:00,
2013-02-23 06:49:00,29.2,28.0,29.80,WSW,257,4.0,4.0,95,0.00,,,0.00,0,weatherlink.com 1.10,2013-02-23 11:49:00,
2013-02-23 07:04:00,29.8,29.0,29.80,West,273,4.0,5.0,96,0.00,,,0.00,0,weatherlink.com 1.10,2013-02-23 12:04:00,
2013-02-23 07:19:00,29.8,29.0,29.80,WNW,296,5.0,7.0,95,0.00,,,0.00,0,weatherlink.com 1.10,2013-02-23 12:19:00,
2013-02-23 07:34:00,29.7,29.0,29.80,WNW,287,4.0,7.0,95,0.00,,,0.00,0,weatherlink.com 1.10,2013-02-23 12:34:00,
2013-02-23 07:49:00,29.6,28.0,29.81,WNW,288,4.0,7.0,95,0.00,,,0.00,5,weatherlink.com 1.10,2013-02-23 12:49:00,
2013-02-23 08:04:00,29.7,29.0,29.81,WNW,291,5.0,6.0,95,0.00,,,0.00,9,weatherlink.com 1.10,2013-02-23 13:04:00,
2013-02-23 08:19:00,29.7,28.0,29.81,WNW,286,3.0,5.0,94,0.00,,,0.00,5,weatherlink.com 1.10,2013-02-23 13:19:00,
2013-02-23 08:34:00,29.7,28.0,29.81,WNW,296,6.0,7.0,94,0.00,,,0.00,11,weatherlink.com 1.10,2013-02-23 13:34:00,
2013-02-23 08:49:00,29.7,28.0,29.82,WNW,284,7.0,7.0,94,0.00,,,0.00,14,weatherlink.com 1.10,2013-02-23 13:49:00,
2013-02-23 09:04:00,29.5,28.0,29.82,WNW,284,5.0,7.0,94,0.00,,,0.00,23,weatherlink.com 1.10,2013-02-23 14:04:00,
2013-02-23 09:19:00,29.6,28.0,29.82,WNW,292,5.0,7.0,94,0.00,,,0.00,26,weatherlink.com 1.10,2013-02-23 14:19:00,
2013-02-23 09:34:00,29.7,28.0,29.82,West,279,6.0,7.0,93,0.00,,,0.00,42,weatherlink.com 1.10,2013-02-23 14:34:00,
2013-02-23 09:49:00,29.7,28.0,29.82,West,279,5.0,7.0,93,0.00,,,0.00,42,weatherlink.com 1.10,2013-02-23 14:49:00,
2013-02-23 10:04:00,29.6,28.0,29.82,West,275,4.0,6.0,93,0.00,,,0.00,42,weatherlink.com 1.10,2013-02-23 15:04:00,
2013-02-23 10:19:00,29.4,28.0,29.82,West,278,5.0,5.0,93,0.00,,,0.00,30,weatherlink.com 1.10,2013-02-23 15:19:00,
2013-02-23 10:34:00,29.3,28.0,29.82,West,281,4.0,6.0,94,0.00,,,0.00,42,weatherlink.com 1.10,2013-02-23 15:34:00,
2013-02-23 10:49:00,29.4,28.0,29.82,West,280,4.0,6.0,94,0.00,,,0.00,21,weatherlink.com 1.10,2013-02-23 15:49:00,
2013-02-23 11:04:00,29.5,28.0,29.82,WNW,284,4.0,6.0,94,0.00,,,0.00,26,weatherlink.com 1.10,2013-02-23 16:04:00,
2013-02-23 11:19:00,29.4,28.0,29.82,West,275,5.0,7.0,94,0.00,,,0.00,33,weatherlink.com 1.10,2013-02-23 16:19:00,
2013-02-23 11:34:00,29.4,28.0,29.82,West,275,5.0,7.0,93,0.00,,,0.00,30,weatherlink.com 1.10,2013-02-23 16:34:00,
2013-02-23 11:49:00,29.5,28.0,29.83,West,272,4.0,7.0,94,0.00,,,0.00,46,weatherlink.com 1.10,2013-02-23 16:49:00,
2013-02-23 12:04:00,29.6,28.0,29.83,West,270,6.0,9.0,94,0.00,,,0.00,19,weatherlink.com 1.10,2013-02-23 17:04:00,
2013-02-23 12:19:00,29.7,28.0,29.83,West,268,6.0,9.0,94,0.00,,,0.00,65,weatherlink.com 1.10,2013-02-23 17:19:00,
2013-02-23 12:34:00,29.7,28.0,29.83,West,267,7.0,8.0,93,0.00,,,0.00,39,weatherlink.com 1.10,2013-02-23 17:34:00,
2013-02-23 12:49:00,29.7,28.0,29.83,West,275,5.0,9.0,92,0.00,,,0.00,49,weatherlink.com 1.10,2013-02-23 17:49:00,
2013-02-23 13:04:00,29.7,27.0,29.83,West,274,5.0,9.0,91,0.00,,,0.00,56,weatherlink.com 1.10,2013-02-23 18:04:00,
2013-02-23 13:19:00,29.7,27.0,29.82,West,272,6.0,8.0,91,0.00,,,0.00,54,weatherlink.com 1.10,2013-02-23 18:19:00,
2013-02-23 13:34:00,29.5,27.0,29.82,West,274,6.0,8.0,91,0.00,,,0.00,40,weatherlink.com 1.10,2013-02-23 18:34:00,
2013-02-23 13:49:00,29.4,27.0,29.82,West,266,6.0,9.0,91,0.00,,,0.00,62,weatherlink.com 1.10,2013-02-23 18:49:00,
2013-02-23 14:04:00,29.5,28.0,29.83,West,264,7.0,10.0,92,0.00,,,0.00,58,weatherlink.com 1.10,2013-02-23 19:04:00,
2013-02-23 14:19:00,29.4,27.0,29.83,West,272,7.0,9.0,92,0.00,,,0.00,60,weatherlink.com 1.10,2013-02-23 19:19:00,
2013-02-23 14:34:00,29.4,27.0,29.83,WSW,258,8.0,12.0,91,0.00,,,0.00,47,weatherlink.com 1.10,2013-02-23 19:34:00,
2013-02-23 14:49:00,29.4,27.0,29.83,West,271,9.0,11.0,92,0.00,,,0.00,26,weatherlink.com 1.10,2013-02-23 19:49:00,
2013-02-23 15:04:00,29.4,27.0,29.83,WSW,250,8.0,11.0,92,0.00,,,0.00,37,weatherlink.com 1.10,2013-02-23 20:04:00,
2013-02-23 15:19:00,29.7,27.0,29.83,WSW,250,9.0,12.0,91,0.00,,,0.00,63,weatherlink.com 1.10,2013-02-23 20:19:00,
2013-02-23 15:34:00,29.7,27.0,29.83,WSW,256,7.0,11.0,90,0.00,,,0.00,65,weatherlink.com 1.10,2013-02-23 20:34:00,
2013-02-23 15:49:00,29.8,27.0,29.83,West,273,8.0,11.0,89,0.00,,,0.00,65,weatherlink.com 1.10,2013-02-23 20:49:00,
2013-02-23 16:04:00,29.9,27.0,29.83,West,265,7.0,9.0,87,0.00,,,0.00,60,weatherlink.com 1.10,2013-02-23 21:04:00,
2013-02-23 16:19:00,30.1,26.0,29.83,West,272,6.0,12.0,86,0.00,,,0.00,49,weatherlink.com 1.10,2013-02-23 21:19:00,
2013-02-23 16:34:00,30.0,25.0,29.83,West,272,9.0,13.0,83,0.00,,,0.00,54,weatherlink.com 1.10,2013-02-23 21:34:00,
2013-02-23 16:49:00,30.0,26.0,29.83,WSW,254,10.0,14.0,84,0.00,,,0.00,33,weatherlink.com 1.10,2013-02-23 21:49:00,
2013-02-23 17:04:00,29.8,26.0,29.83,WSW,246,8.0,14.0,85,0.00,,,0.00,42,weatherlink.com 1.10,2013-02-23 22:04:00,
2013-02-23 17:19:00,29.9,26.0,29.84,WSW,257,8.0,12.0,85,0.00,,,0.00,30,weatherlink.com 1.10,2013-02-23 22:19:00,
2013-02-23 17:34:00,30.0,26.0,29.84,West,270,6.0,12.0,84,0.00,,,0.00,18,weatherlink.com 1.10,2013-02-23 22:34:00,
2013-02-23 17:49:00,30.3,26.0,29.84,West,271,8.0,12.0,83,0.00,,,0.00,16,weatherlink.com 1.10,2013-02-23 22:49:00,
2013-02-23 18:05:00,30.5,26.0,29.85,West,265,9.0,11.0,82,0.00,,,0.00,5,weatherlink.com 1.10,2013-02-23 23:05:00,
2013-02-23 18:20:00,30.5,26.0,29.85,West,269,6.0,11.0,83,0.00,,,0.00,0,weatherlink.com 1.10,2013-02-23 23:20:00,
2013-02-23 18:35:00,30.7,26.0,29.85,West,269,7.0,10.0,83,0.00,,,0.00,0,weatherlink.com 1.10,2013-02-23 23:35:00,
2013-02-23 18:50:00,30.5,26.0,29.85,West,263,8.0,10.0,83,0.00,,,0.00,0,weatherlink.com 1.10,2013-02-23 23:50:00,
2013-02-23 19:05:00,30.1,26.0,29.86,SW,217,1.0,7.0,85,0.00,,,0.00,0,weatherlink.com 1.10,2013-02-24 00:05:00,
2013-02-23 19:20:00,29.6,26.0,29.86,SW,236,6.0,6.0,87,0.00,,,0.00,0,weatherlink.com 1.10,2013-02-24 00:20:00,
2013-02-23 19:35:00,29.8,27.0,29.86,West,262,6.0,10.0,88,0.00,,,0.00,0,weatherlink.com 1.10,2013-02-24 00:35:00,
2013-02-23 19:50:00,29.4,27.0,29.86,WNW,286,4.0,7.0,89,0.00,,,0.00,0,weatherlink.com 1.10,2013-02-24 00:50:00,
2013-02-23 20:05:00,29.2,27.0,29.86,West,279,5.0,8.0,92,0.00,,,0.00,0,weatherlink.com 1.10,2013-02-24 01:05:00,
2013-02-23 20:20:00,29.1,27.0,29.87,WSW,250,9.0,9.0,93,0.00,,,0.00,0,weatherlink.com 1.10,2013-02-24 01:20:00,
2013-02-23 20:35:00,29.0,27.0,29.88,West,266,4.0,8.0,92,0.00,,,0.00,0,weatherlink.com 1.10,2013-02-24 01:35:00,
2013-02-23 20:50:00,29.0,27.0,29.88,West,259,5.0,8.0,93,0.00,,,0.00,0,weatherlink.com 1.10,2013-02-24 01:50:00,
2013-02-23 21:05:00,28.9,27.0,29.88,WSW,251,5.0,7.0,92,0.00,,,0.00,0,weatherlink.com 1.10,2013-02-24 02:05:00,
2013-02-23 21:20:00,28.9,27.0,29.88,SW,229,2.0,5.0,93,0.00,,,0.00,0,weatherlink.com 1.10,2013-02-24 02:20:00,
2013-02-23 21:35:00,28.7,27.0,29.88,SW,231,3.0,3.0,93,0.00,,,0.00,0,weatherlink.com 1.10,2013-02-24 02:35:00,
2013-02-23 21:50:00,28.6,27.0,29.87,SW,223,0.0,3.0,93,0.00,,,0.00,0,weatherlink.com 1.10,2013-02-24 02:50:00,
2013-02-23 22:05:00,28.6,27.0,29.87,South,180,0.0,3.0,93,0.00,,,0.00,0,weatherlink.com 1.10,2013-02-24 03:05:00,
2013-02-23 22:20:00,28.7,27.0,29.87,SSW,202,1.0,3.0,93,0.00,,,0.00,0,weatherlink.com 1.10,2013-02-24 03:20:00,
2013-02-23 22:35:00,28.7,27.0,29.87,SSW,212,3.0,4.0,93,0.00,,,0.00,0,weatherlink.com 1.10,2013-02-24 03:35:00,
2013-02-23 22:50:00,28.9,27.0,29.86,WSW,244,4.0,5.0,93,0.00,,,0.00,0,weatherlink.com 1.10,2013-02-24 03:50:00,
2013-02-23 23:05:00,29.1,27.0,29.86,WSW,254,2.0,5.0,93,0.00,,,0.00,0,weatherlink.com 1.10,2013-02-24 04:05:00,
2013-02-23 23:20:00,29.2,28.0,29.86,WSW,252,2.0,5.0,93,0.00,,,0.00,0,weatherlink.com 1.10,2013-02-24 04:20:00,
2013-02-23 23:35:00,29.4,28.0,29.86,WSW,257,3.0,5.0,93,0.00,,,0.00,0,weatherlink.com 1.10,2013-02-24 04:35:00,
2013-02-23 23:50:00,29.7,28.0,29.85,WNW,284,5.0,6.0,92,0.00,,,0.00,0,weatherlink.com 1.10,2013-02-24 04:50:00,